Погода в Беренжаке

Россия / Республика Хакасия     54°08′05″N   89°28′19″E
темп.,
°C
ветер,
м/с
пор.,
м/с
влажн.,
%
обл.,
%
осадки,
мм/ч
давл.,
гПа
погр.,
м
18 января, вт
вт1801:00−7з1196100 0.0 102113
04:00−8зюз2195100 0.0 102413
07:00−10зюз2196100 0.0 102611
10:00−13зюз229698 0.0 102915
13:00−6ююз258086 0.0 1027417
16:00−8ю118982 0.0 102820
19:00−13зюз2195100 0.0 103114
22:00−12юз1194100 0.0 103119
19 января, ср
ср1901:00−12юз1195100 0.0 103017
04:00−13зюз1195100 0.0 103011
07:00−15зюз1196100 0.0 103111
10:00−18зюз219818 0.0 103211
13:00−9ююв11835 0.0 1027167
16:00−10в11946 0.0 102710
19:00−18зюз1110060 0.0 10319
22:00−20юз2110080 0.0 103210
20 января, чт
чт2001:00−21юз2110085 0.0 103210
04:00
07:00−21юз2110078 0.0 103310
10:00−20юз2110066 0.0 103412
13:00
16:00−10в00945 0.0 103010
19:00−19зюз219949 0.0 10359
22:00−21юз219934 0.0 10369
21 января, пт
пт2101:00−22юз219733 0.0 10369
04:00−21юз219839 0.0 103610
07:00−21юз229827 0.0 103611
10:00−20юз21946 0.0 103514
13:00−9юв11779 0.0 1030131
16:00−10всв11915 0.0 102910
19:00−18зюз119944 0.0 10329
22:00−20юз219826 0.0 10339
22 января, сб
сб2201:00−20юз219622 0.0 10339
04:00−21юз21946 0.0 103310
07:00−21юз21924 0.0 10339
10:00−19юз21915 0.0 103314
13:00−8юз117138 0.0 1028154
16:00−8зсз1189100 0.0 102812
19:00−13зюз2295100 0.0 103117
22:00−14зюз219496 0.0 103220